Regional Weather Roundup
Issued by NWS Kansas City/Pleasant Hill, MO

Home | Current Version | Previous Version | Text Only | Print | Product List | Glossary On
Versions: 1 2 3 4 5 6 7 8 9 10 11 12 13 14 15 16 17 18 19 20 21 22 23 24 25 26 27 28 29 30 31 32 33 34 35 36 37 38 39 40 41 42 43 44 45 46 47 48 49 50
000
ASUS43 KEAX 211911
RWREAX

WEATHER ROUNDUP FOR EASTERN KANSAS AND NORTHWEST MISSOURI
NATIONAL WEATHER SERVICE KANSAS CITY/PLEASANT HILL MO
200 PM CDT TUE OCT 21 2014

KSZ040-057-103>105-MOZ028-029-037-043-212000-
...KANSAS CITY METROPOLITAN AREA...

CITY           SKY/WX    TMP DP  RH WIND       PRES   REMARKS
K.C. INTL      SUNNY     72  44  36 VRB3      30.10F
K.C. DOWNTOWN  SUNNY     72  42  34 W3        30.09F
LEES SUMMIT    SUNNY     71  41  33 CALM      30.11F
OLATHE - IXD   SUNNY     73  46  38 SE8       30.10F
OLATHE - OJC   SUNNY     72  46  39 CALM      30.09F
LAWRENCE       SUNNY     72  41  32 VRB3      30.09F

$$

MOZ001>008-011>017-020>025-030>033-038>040-044>046-053-054-212000-
...NORTHERN AND CENTRAL MISSOURI...

CITY           SKY/WX    TMP DP  RH WIND       PRES   REMARKS
ST. JOSEPH     SUNNY     72  41  32 CALM      30.09F
MOSBY            N/A     72  37  28 S5        30.10F
WHITEMAN AFB   SUNNY     71  43  37 CALM      30.10F
CLINTON        SUNNY     72  45  37 S3        30.11F
SEDALIA        SUNNY     72  43  35 VRB5      30.12F
WARSAW         NOT AVBL
MARSHALL       SUNNY     75  45  33 CALM      30.11F
CHILLICOTHE      N/A     72  45  37 VRB3      30.11F
MOBERLY        SUNNY     70  41  35 E3        30.13F
KIRKSVILLE     SUNNY     64  46  52 E8        30.14F

$$

MOZ041-047>049-056>058-063>065-088>090-097-212000-
...EASTERN AND SOUTHERN MISSOURI...

CITY           SKY/WX    TMP DP  RH WIND       PRES   REMARKS
ST. LOUIS INTL SUNNY     67  45  45 N9        30.12F
SPIRIT OF STL  SUNNY     66  46  48 N7        30.11F
COLUMBIA       SUNNY     72  44  36 N5        30.11F
JEFFERSON CITY SUNNY     71  46  40 CALM      30.10F
MEXICO         SUNNY     70  50  49 E6        30.12F
HANNIBAL       SUNNY     68  37  32 NE5       30.14
ROLLA          SUNNY     70  43  37 N9        30.10F
LEBANON        SUNNY     72  41  33 N3        30.12F
OSAGE BEACH    SUNNY     72  43  35 SW5       30.11F
SPRINGFIELD    SUNNY     72  41  32 CALM      30.10F
BRANSON        MOSUNNY   73  50  43 N5        30.11F
NEVADA         SUNNY     73  45  35 CALM      30.11F
JOPLIN         SUNNY     74  48  39 CALM      30.10F
WEST PLAINS    SUNNY     72  42  34 VRB6      30.11F

$$

IAZ060-094-KSZ022-034>040-054-083-096-NEZ052-066-093-212000-
...KANSAS...SOUTHEAST NEBRASKA AND IOWA...

CITY           SKY/WX    TMP DP  RH WIND       PRES   REMARKS
TOPEKA         SUNNY     75  42  30 VRB3      30.09F
MANHATTAN      SUNNY     77  45  32 SE6       30.06F
EMPORIA        SUNNY     74  50  42 S9        30.08F
CHANUTE        SUNNY     74  56  53 SE8       30.09F
WICHITA        MOSUNNY   79  56  45 SE9       30.05F
OMAHA          SUNNY     72  40  31 S10       30.07F
LINCOLN        SUNNY     77  45  32 S10       30.06F
FALLS CITY     SUNNY     74  43  32 VRB5      30.08F
LAMONI         SUNNY     69  45  41 CALM      30.10F
DES MOINES     SUNNY     65  44  46 E7        30.12F

$$




USA.gov is the U.S. government's official web portal to all federal, state and local government web resources and services.